 day,  time,  air_temp(C),  RH(%),  ground_temp10cm(C),  ground_temp20cm(C),  ground_temp40cm(C),  precipitation(mm/h),  Solar_Radiation(MJ/m2h),  lack, 
 03/05/01, 01:00,  -0.5,  94,   8.3,   9.8,   9.3,   0.0,  0.00, 
 03/05/01, 02:00,  -0.8,  88,   8.0,   9.7,   9.3,   0.5,  0.00, 
 03/05/01, 03:00,  -1.1,  75,   7.8,   9.6,   9.2,   0.0,  0.00, 
 03/05/01, 04:00,  -1.9,  71,   7.5,   9.4,   9.2,   0.0,  0.00, 
 03/05/01, 05:00,  -1.9,  59,   7.2,   9.3,   9.2,   0.0,  0.00, 
 03/05/01, 06:00,  -1.2,  50,   7.1,   9.2,   9.2,   0.0,  0.11, 
 03/05/01, 07:00,   1.4,  44,   6.8,   9.0,   9.2,   0.0,  0.88, 
 03/05/01, 08:00,   2.0,  54,   6.8,   8.9,   9.2,   0.0,  1.70, 
 03/05/01, 09:00,   3.7,  59,   7.0,   8.8,   9.1,   0.0,  2.41, 
 03/05/01, 10:00,   6.7,  51,   7.5,   8.6,   9.1,   0.0,  3.00, 
 03/05/01, 11:00,   7.8,  46,   8.2,   8.6,   9.1,   0.0,  3.37, 
 03/05/01, 12:00,   9.6,  42,   9.3,   8.5,   9.1,   0.0,  3.55, 
 03/05/01, 13:00,  11.1,  38,  10.3,   8.6,   9.0,   0.0,  3.51, 
 03/05/01, 14:00,  13.1,  37,  10.6,   8.7,   9.0,   0.0,  3.23, 
 03/05/01, 15:00,  13.5,  23,  10.7,   8.9,   0.0,   0.0,  2.70, 
 03/05/01, 16:00,  15.0,  22,  10.7,   9.1,   9.0,   0.0,  2.17, 
 03/05/01, 17:00,  12.8,  31,  11.0,   9.3,   9.0,   0.0,  1.43, 
 03/05/01, 18:00,  10.0,  45,  11.0,   9.4,   9.0,   0.0,  0.64, 
 03/05/01, 19:00,   8.1,  50,  10.7,   9.5,   8.9,   0.0,  0.06, 
 03/05/01, 20:00,   6.4,  61,  10.4,   9.6,   8.8,   0.0,  0.00, 
 03/05/01, 21:00,   5.4,  78,  10.1,   9.6,   8.8,   0.0,  0.00, 
 03/05/01, 22:00,   4.8,  85,   9.8,   9.6,   8.8,   0.0,  0.00, 
 03/05/01, 23:00,   4.4,  85,   9.5,   9.6,   8.8,   0.5,  0.00, 
 03/05/02, 00:00,   3.8,  88,   9.2,   9.6,   8.8,   0.0,  0.00, 
 03/05/02, 01:00,   2.6,  95,   8.8,   9.5,   8.8,   0.0,  0.00, 
 03/05/02, 02:00,   3.2,  94,   8.5,   9.4,   8.8,   0.0,  0.00, 
 03/05/02, 03:00,   1.9,  99,   8.3,   9.4,   8.8,   0.0,  0.00, 
 03/05/02, 04:00,   2.8,  95,   8.1,   9.3,   8.8,   0.0,  0.00, 
 03/05/02, 05:00,   3.2,  92,   7.9,   9.2,   8.8,   0.0,  0.00, 
 03/05/02, 06:00,   4.1,  84,   7.6,   9.1,   8.8,   0.0,  0.10, 
 03/05/02, 07:00,   6.9,  72,   7.6,   9.0,   8.8,   0.0,  0.84, 
 03/05/02, 08:00,   7.9,  72,   7.6,   8.9,   8.8,   0.0,  1.62, 
 03/05/02, 09:00,  10.6,  70,   8.1,   8.8,   8.8,   0.0,  2.37, 
 03/05/02, 10:00,  13.1,  63,   8.7,   8.7,   8.8,   0.0,  2.94, 
 03/05/02, 11:00,  15.3,  59,   9.6,   8.7,   8.8,   0.0,  3.33, 
 03/05/02, 12:00,  15.8,  58,  10.9,   8.7,   8.8,   0.0,  3.54, 
 03/05/02, 13:00,  15.0,  56,  12.0,   8.9,   8.8,   0.0,  3.47, 
 03/05/02, 14:00,  16.3,  55,  12.3,   9.1,   8.7,   0.0,  3.22, 
 03/05/02, 15:00,  16.3,  59,  12.4,   9.4,   8.7,   0.0,  2.77, 
 03/05/02, 16:00,  17.4,  55,  12.4,   9.6,   8.7,   0.0,  2.11, 
 03/05/02, 17:00,  15.8,  59,  12.8,   9.8,   8.7,   0.0,  1.40, 
 03/05/02, 18:00,  13.7,  63,  12.6,  10.0,   8.7,   0.0,  0.62, 
 03/05/02, 19:00,  11.8,  69,  12.4,  10.2,   8.7,   0.0,  0.07, 
 03/05/02, 20:00,  10.4,  77,  12.0,  10.3,   8.7,   0.0,  0.00, 
 03/05/02, 21:00,   8.6,  86,  11.7,  10.4,   8.7,   0.0,  0.00, 
 03/05/02, 22:00,   7.8,  93,  11.4,  10.4,   8.7,   0.0,  0.00, 
 03/05/02, 23:00,   8.8,  96,  11.0,  10.4,   8.7,   0.0,  0.00, 
 03/05/03, 00:00,   9.0,  95,  10.8,  10.4,   8.8,   0.0,  0.00, 
 03/05/03, 01:00,   9.0,  94,  10.6,  10.3,   8.8,   0.0,  0.00, 
 03/05/03, 02:00,   8.9,  93,  10.5,  10.3,   8.8,   0.0,  0.00, 
 03/05/03, 03:00,   8.6,  91,  10.4,  10.3,   8.8,   0.0,  0.00, 
 03/05/03, 04:00,   7.8,  91,  10.4,  10.2,   8.8,   0.0,  0.00, 
 03/05/03, 05:00,   5.3,  97,  10.2,  10.2,   8.9,   0.0,  0.00, 
 03/05/03, 06:00,   5.7,  99,  10.0,  10.1,   8.9,   0.0,  0.12, 
 03/05/03, 07:00,   9.1,  92,   9.7,  10.1,   8.9,   0.0,  0.87, 
 03/05/03, 08:00,  11.0,  79,   9.8,  10.0,   8.9,   0.0,  1.70, 
 03/05/03, 09:00,  13.6,  73,  10.4,   9.9,   8.9,   0.0,  2.39, 
 03/05/03, 10:00,  15.3,  68,  11.1,   9.9,   8.9,   0.0,  2.97, 
 03/05/03, 11:00,  17.0,  59,  11.7,   9.9,   8.9,   0.0,  3.34, 
 03/05/03, 12:00,  21.0,  49,  13.0,  10.0,   8.9,   0.0,  3.55, 
 03/05/03, 13:00,  21.0,  35,  14.1,  10.2,   8.9,   0.0,  3.51, 
 03/05/03, 14:00,  21.5,  24,  14.4,  10.4,   9.0,   0.0,  3.29, 
 03/05/03, 15:00,  21.0,  36,  14.2,  10.7,   9.0,   0.0,  2.78, 
 03/05/03, 16:00,  19.2,  51,  14.2,  10.9,   9.0,   0.0,  2.12, 
 03/05/03, 17:00,  17.6,  59,  14.4,  11.1,   9.0,   0.0,  1.38, 
 03/05/03, 18:00,  16.0,  63,  14.3,  11.3,   9.0,   0.0,  0.62, 
 03/05/03, 19:00,  13.7,  71,  14.1,  11.4,   9.0,   0.0,  0.06, 
 03/05/03, 20:00,  13.3,  72,  13.7,  11.5,   9.0,   0.0,  0.00, 
 03/05/03, 21:00,  13.4,  71,  13.4,  11.6,   9.1,   0.0,  0.00, 
 03/05/03, 22:00,  12.9,  68,  13.1,  11.6,   9.1,   0.0,  0.00, 
 03/05/03, 23:00,  13.1,  44,  12.7,  11.6,   9.1,   0.0,  0.00, 
 03/05/04, 00:00,  12.3,  42,  12.4,  11.6,   9.2,   0.0,  0.00, 
 03/05/04, 01:00,  11.2,  50,  12.0,  11.6,   9.2,   0.0,  0.00, 
 03/05/04, 02:00,  13.2,  38,  11.7,  11.5,   9.2,   0.0,  0.00, 
 03/05/04, 03:00,  13.4,  35,  11.4,  11.5,   9.3,   0.0,  0.00, 
 03/05/04, 04:00,  12.6,  32,  11.1,  11.4,   9.3,   0.0,  0.00, 
 03/05/04, 05:00,  13.4,  24,  10.8,  11.3,   9.3,   0.0,  0.00, 
 03/05/04, 06:00,  13.6,  22,  10.5,  11.2,   9.3,   0.0,  0.17, 
 03/05/04, 07:00,  14.0,  26,  10.4,  11.1,   9.4,   0.0,  0.89, 
 03/05/04, 08:00,  14.8,  36,  10.5,  11.0,   9.4,   0.0,  1.41, 
 03/05/04, 09:00,  15.5,  49,  10.9,  10.9,   9.4,   0.0,  2.25, 
 03/05/04, 10:00,  18.6,  36,  11.5,  10.8,   9.4,   0.0,  2.91, 
 03/05/04, 11:00,  18.3,  40,  12.3,  10.8,   9.4,   0.0,  2.74, 
 03/05/04, 12:00,  19.8,  27,  13.2,  10.8,   9.5,   0.0,  3.32, 
 03/05/04, 13:00,  21.3,  20,  14.2,  10.9,   9.5,   0.0,  3.21, 
 03/05/04, 14:00,  21.1,  20,  14.5,  11.1,   9.5,   0.0,  2.47, 
 03/05/04, 15:00,  21.8,  19,  14.6,  11.3,   9.5,   0.0,  2.26, 
 03/05/04, 16:00,  21.0,  17,  14.7,  11.5,   9.5,   0.0,  1.98, 
 03/05/04, 17:00,  20.1,  24,  14.8,  11.7,   9.5,   0.0,  1.36, 
 03/05/04, 18:00,  17.0,  31,  14.7,  11.9,   9.5,   0.0,  0.58, 
 03/05/04, 19:00,  13.5,  45,  14.3,  12.0,   9.5,   0.0,  0.06, 
 03/05/04, 20:00,  11.9,  47,  13.9,  12.1,   9.5,   0.0,  0.00, 
 03/05/04, 21:00,  11.4,  48,  13.5,  12.1,   9.6,   0.0,  0.00, 
 03/05/04, 22:00,  12.0,  52,  13.1,  12.1,   9.6,   0.0,  0.00, 
 03/05/04, 23:00,  11.5,  53,  12.7,  12.1,   9.6,   0.0,  0.00, 
 03/05/05, 00:00,  10.4,  52,  12.4,  12.1,   9.6,   0.0,  0.00, 
 03/05/05, 01:00,  10.5,  51,  12.1,  12.0,   9.7,   0.0,  0.00, 
 03/05/05, 02:00,  12.3,  50,  11.8,  11.9,   9.7,   0.0,  0.00, 
 03/05/05, 03:00,  11.4,  54,  11.5,  11.8,   9.7,   0.0,  0.00, 
 03/05/05, 04:00,   9.5,  56,  11.4,  11.7,   9.8,   0.0,  0.00, 
 03/05/05, 05:00,   9.0,  56,  11.0,  11.6,   9.8,   0.0,  0.00, 
 03/05/05, 06:00,  10.6,  51,  10.8,  11.5,   9.8,   0.0,  0.15, 
 03/05/05, 07:00,  13.4,  49,  10.6,  11.4,   9.8,   0.0,  0.87, 
 03/05/05, 08:00,  15.4,  43,  10.8,  11.3,   9.8,   0.0,  1.64, 
 03/05/05, 09:00,  15.5,  45,  11.4,  11.2,   9.8,   0.0,  2.35, 
 03/05/05, 10:00,  17.1,  43,  11.9,  11.2,   9.9,   0.0,  2.94, 
 03/05/05, 11:00,  19.3,  37,  12.9,  11.1,   9.9,   0.0,  3.30, 
 03/05/05, 12:00,  21.2,  18,  14.0,  11.2,   9.9,   0.0,  3.52, 
 03/05/05, 13:00,  23.7,  18,  15.1,  11.3,   9.9,   0.0,  3.46, 
 03/05/05, 14:00,  22.8,  19,  15.3,  11.6,   9.9,   0.0,  3.19, 
 03/05/05, 15:00,  22.9,  25,  15.2,  11.8,   9.9,   0.0,  2.72, 
 03/05/05, 16:00,  22.5,  34,  15.2,  12.0,   9.9,   0.0,  2.02, 
 03/05/05, 17:00,  19.8,  41,  15.4,  12.2,  10.0,   0.0,  1.31, 
 03/05/05, 18:00,  17.1,  54,  15.3,  12.4,   9.9,   0.0,  0.55, 
 03/05/05, 19:00,  15.3,  71,  15.0,  12.5,  10.0,   0.0,  0.06, 
 03/05/05, 20:00,  13.9,  82,  14.7,  12.6,   9.9,   0.0,  0.00, 
 03/05/05, 21:00,  12.8,  90,  14.3,  12.7,  10.0,   0.0,  0.00, 
 03/05/05, 22:00,  12.5,  94,  14.0,  12.7,  10.0,   0.0,  0.00, 
 03/05/05, 23:00,  12.1,  94,  13.7,  12.7,  10.0,   0.0,  0.00, 
 03/05/06, 00:00,  11.5,  99,  13.5,  12.7,  10.0,   0.0,  0.00, 
 03/05/06, 01:00,  11.4,  97,  13.3,  12.6,  10.1,   0.0,  0.00, 
 03/05/06, 02:00,  11.0,  97,  13.2,  12.6,  10.1,   0.0,  0.00, 
 03/05/06, 03:00,  11.0,  93,  13.0,  12.5,  10.1,   0.0,  0.00, 
 03/05/06, 04:00,  10.4,  93,  12.9,  12.4,  10.1,   0.0,  0.00, 
 03/05/06, 05:00,   8.9,  99,  12.6,  12.4,  10.2,   0.0,  0.00, 
 03/05/06, 06:00,   8.7,  98,  12.3,  12.3,  10.2,   0.0,  0.14, 
 03/05/06, 07:00,  14.0,  67,  12.1,  12.3,  10.2,   0.0,  0.86, 
 03/05/06, 08:00,  14.6,  59,  12.3,  12.2,  10.2,   0.0,  1.64, 
 03/05/06, 09:00,  15.7,  64,  12.9,  12.1,  10.3,   0.0,  2.34, 
 03/05/06, 10:00,  18.0,  56,  13.5,  12.1,  10.3,   0.0,  2.85, 
 03/05/06, 11:00,  19.8,  48,  14.3,  12.1,  10.3,   0.0,  3.23, 
 03/05/06, 12:00,  20.5,  48,  15.4,  12.2,  10.3,   0.0,  3.44, 
 03/05/06, 13:00,  22.1,  48,  16.4,  12.3,  10.4,   0.0,  3.25, 
 03/05/06, 14:00,  21.9,  49,  16.7,  12.5,  10.3,   0.0,  2.40, 
 03/05/06, 15:00,  21.3,  56,  16.7,  12.8,  10.4,   0.0,  2.73, 
 03/05/06, 16:00,  19.4,  60,  16.7,  13.0,  10.4,   0.0,  1.80, 
 03/05/06, 17:00,  17.1,  69,  16.9,  13.3,  10.4,   0.0,  0.93, 
 03/05/06, 18:00,  15.3,  81,  16.7,  13.5,  10.4,   0.0,  0.09, 
 03/05/06, 19:00,  14.2,  85,  16.4,  13.5,  10.4,   0.0,  0.00, 
 03/05/06, 20:00,  13.6,  89,  16.1,  13.7,  10.4,   0.0,  0.00, 
 03/05/06, 21:00,  13.2,  95,  15.8,  13.7,  10.5,   0.0,  0.00, 
 03/05/06, 22:00,  12.7,  98,  15.5,  13.8,  10.5,   0.0,  0.00, 
 03/05/06, 23:00,  12.4,  99,  15.2,  13.8,  10.5,   0.0,  0.00, 
 03/05/07, 00:00,  12.2,  99,  15.0,  13.7,  10.6,   0.0,  0.00, 
 03/05/07, 01:00,  12.1,  99,  14.8,  13.7,  10.6,   0.0,  0.00, 
 03/05/07, 02:00,  11.9,  99,  14.6,  13.7,  10.6,   0.0,  0.00, 
 03/05/07, 03:00,  11.8,  99,  14.4,  13.6,  10.7,   0.0,  0.00, 
 03/05/07, 04:00,  11.7,  99,  14.3,  13.6,  10.7,   0.0,  0.00, 
 03/05/07, 05:00,  11.6,  99,  14.1,  13.5,  10.7,   0.0,  0.00, 
 03/05/07, 06:00,  11.6,  99,  14.0,  13.4,  10.8,   0.0,  0.06, 
 03/05/07, 07:00,  13.6,  89,  13.9,  13.4,  10.8,   0.0,  0.37, 
 03/05/07, 08:00,  12.8,  95,  13.9,  13.3,  10.8,   0.0,  0.39, 
 03/05/07, 09:00,  13.2,  95,  13.9,  13.3,  10.8,   0.0,  0.39, 
 03/05/07, 10:00,  15.0,  87,  13.9,  13.2,  10.9,   0.0,  0.64, 
 03/05/07, 11:00,  15.5,  88,  14.1,  13.2,  10.9,   0.0,  0.89, 
 03/05/07, 12:00,  16.9,  84,  14.4,  13.1,  10.9,   0.0,  1.46, 
 03/05/07, 13:00,  15.0,  99,  14.7,  13.1,  10.9,   0.0,  0.55, 
 03/05/07, 14:00,  15.1,  97,  14.8,  13.2,  10.9,   0.0,  0.24, 
 03/05/07, 15:00,  15.4,  97,  14.8,  13.3,  11.0,   0.0,  0.26, 
 03/05/07, 16:00,  15.5,  98,  14.7,  13.2,  11.0,   0.0,  0.21, 
 03/05/07, 17:00,  15.8,  97,  14.7,  13.3,  11.0,   0.0,  0.22, 
 03/05/07, 18:00,  15.5,  99,  14.7,  13.3,  11.0,   0.0,  0.02, 
 03/05/07, 19:00,  15.3,  99,  14.6,  13.3,  11.0,   0.5,  0.00, 
 03/05/07, 20:00,  15.4,  99,  14.5,  13.3,  11.0,   0.5,  0.00, 
 03/05/07, 21:00,  15.8,  97,  14.5,  13.3,  11.0,   0.0,  0.00, 
 03/05/07, 22:00,  15.5,  99,  14.4,  13.3,  11.0,   0.5,  0.00, 
 03/05/07, 23:00,  15.6,  99,  14.3,  13.3,  11.1,   0.0,  0.00, 
 03/05/08, 00:00,  15.6,  99,  14.3,  13.3,  11.1,   0.5,  0.00, 
 03/05/08, 01:00,  15.7,  99,  14.3,  13.3,  11.1,   2.0,  0.00, 
 03/05/08, 02:00,  15.5,  99,  14.3,  13.3,  11.1,   5.0,  0.00, 
 03/05/08, 03:00,  15.6,  99,  14.3,  13.3,  11.1,   0.5,  0.00, 
 03/05/08, 04:00,  15.5,  99,  14.3,  13.3,  11.1,   0.5,  0.00, 
 03/05/08, 05:00,  15.6,  99,  14.2,  13.3,  11.1,   0.5,  0.00, 
 03/05/08, 06:00,  15.4,  99,  14.2,  13.3,  11.1,   1.5,  0.00, 
 03/05/08, 07:00,  15.0,  99,  14.2,  13.3,  11.2,   4.0,  0.00, 
 03/05/08, 08:00,  13.8,  99,  14.2,  13.3,  11.2,  11.0,  0.03, 
 03/05/08, 09:00,  12.7,  99,  14.2,  13.4,  11.2,   5.5,  0.06, 
 03/05/08, 10:00,  12.6,  99,  14.2,  13.5,  11.3,   5.0,  0.11, 
 03/05/08, 11:00,  11.8,  99,  14.0,  13.5,  11.3,   4.0,  0.14, 
 03/05/08, 12:00,  10.4,  99,  13.9,  13.5,  11.4,   1.5,  0.22, 
 03/05/08, 13:00,   8.3,  99,  13.8,  13.5,  11.4,   1.0,  0.43, 
 03/05/08, 14:00,   6.7,  99,  13.7,  13.5,  11.5,   0.0,  0.51, 
 03/05/08, 15:00,   5.4,  99,  13.6,  13.4,  11.5,   0.0,  0.29, 
 03/05/08, 16:00,   4.9,  99,  13.3,  13.4,  11.6,   0.0,  0.30, 
 03/05/08, 17:00,   3.7,  99,  13.1,  13.3,  11.6,   0.0,  0.17, 
 03/05/08, 18:00,   2.7,  99,  12.7,  13.3,  11.6,   0.0,  0.08, 
 03/05/08, 19:00,   2.5,  99,  12.4,  13.2,  11.6,   0.5,  0.00, 
 03/05/08, 20:00,   2.2,  99,  12.1,  13.1,  11.6,   0.0,  0.00, 
 03/05/08, 21:00,   1.8,  99,  11.8,  13.0,  11.6,   0.0,  0.00, 
 03/05/08, 22:00,   1.4,  99,  11.5,  12.9,  11.6,   0.0,  0.00, 
 03/05/08, 23:00,   1.4,  99,  11.2,  12.7,  11.6,   0.0,  0.00, 
 03/05/09, 00:00,   1.1,  99,  10.9,  12.6,  11.6,   0.0,  0.00, 
 03/05/09, 01:00,   1.0,  99,  10.7,  12.5,  11.6,   0.0,  0.00, 
 03/05/09, 02:00,   0.7,  99,  10.5,  12.3,  11.6,   0.0,  0.00, 
 03/05/09, 03:00,   0.7,  99,  10.3,  12.2,  11.6,   0.0,  0.00, 
 03/05/09, 04:00,   0.0,  99,  10.0,  12.0,  11.6,   0.0,  0.00, 
 03/05/09, 05:00,   0.0,  99,   9.8,  11.9,  11.6,   0.0,  0.00, 
 03/05/09, 06:00,   0.0,  99,   9.6,  11.7,  11.6,   0.0,  0.00, 
 03/05/09, 07:00,   0.0,  99,   9.4,  11.6,  11.4,   0.0,  0.15, 
 03/05/09, 08:00,   0.4,  99,   9.2,  11.4,  11.5,   0.0,  0.45, 
 03/05/09, 09:00,   1.4,  99,   9.2,  11.3,  11.5,   0.0,  0.84, 
 03/05/09, 10:00,   2.8,  99,   9.3,  11.2,  11.5,   0.0,  1.40, 
 03/05/09, 11:00,   6.7,  88,   9.6,  11.1,  11.4,   0.5,  3.06, 
 03/05/09, 12:00,   9.0,  66,  10.7,  11.0,  11.4,   0.0,  3.68, 
 03/05/09, 13:00,  10.7,  54,  12.0,  10.9,  11.4,   0.0,  3.59, 
 03/05/09, 14:00,  10.9,  35,  12.3,  11.0,  11.3,   0.0,  3.36, 
 03/05/09, 15:00,  11.4,  32,  12.2,  11.1,  11.3,   0.0,  2.86, 
 03/05/09, 16:00,  10.2,  36,  12.2,  11.3,  11.3,   0.0,  2.25, 
 03/05/09, 17:00,   8.8,  47,  12.4,  11.4,  11.2,   0.0,  1.50, 
 03/05/09, 18:00,   7.7,  49,  12.3,  11.5,  11.2,   0.0,  0.71, 
 03/05/09, 19:00,   4.8,  67,  12.0,  11.6,  11.2,   0.0,  0.10, 
 03/05/09, 20:00,   2.9,  71,  11.5,  11.6,  11.1,   0.0,  0.00, 
 03/05/09, 21:00,   2.4,  70,  11.2,  11.6,  11.1,   0.0,  0.00, 
 03/05/09, 22:00,   1.9,  70,  10.7,  11.6,  11.1,   0.0,  0.00, 
 03/05/09, 23:00,   1.5,  79,  10.3,  11.5,  11.1,   0.0,  0.00, 
 03/05/10, 00:00,   1.1,  77,  10.0,  11.4,  11.1,   0.0,  0.00, 
 03/05/10, 01:00,   1.9,  70,   9.5,  11.3,  11.1,   0.0,  0.00, 
 03/05/10, 02:00,   2.2,  71,   9.2,  11.2,  11.0,   0.0,  0.00, 
 03/05/10, 03:00,   2.6,  62,   8.9,  11.1,  11.0,   0.0,  0.00, 
 03/05/10, 04:00,   2.7,  68,   8.6,  10.9,  11.0,   0.0,  0.00, 
 03/05/10, 05:00,   2.0,  73,   8.4,  10.8,  11.0,   0.0,  0.00, 
 03/05/10, 06:00,   2.6,  81,   8.2,  10.6,  11.0,   0.0,  0.17, 
 03/05/10, 07:00,   8.1,  57,   8.0,  10.5,  11.0,   0.0,  0.80, 
 03/05/10, 08:00,   9.5,  65,   8.3,  10.3,  11.0,   0.0,  1.60, 
 03/05/10, 09:00,  10.2,  64,   8.9,  10.2,  10.9,   0.0,  2.30, 
 03/05/10, 10:00,   9.7,  68,   9.8,  10.1,  10.9,   0.0,  2.87, 
 03/05/10, 11:00,  13.3,  56,  10.7,  10.1,  10.9,   0.0,  3.13, 
 03/05/10, 12:00,  14.2,  52,  11.7,  10.2,  10.9,   0.0,  3.29, 
 03/05/10, 13:00,  15.3,  56,  13.0,  10.3,  10.8,   0.0,  3.24, 
 03/05/10, 14:00,  13.6,  58,  13.3,  10.5,  10.8,   0.0,  1.94, 
 03/05/10, 15:00,  14.3,  55,  13.5,  10.8,  10.8,   0.0,  2.02, 
 03/05/10, 16:00,  13.9,  56,  13.6,  11.0,  10.7,   0.0,  2.11, 
 03/05/10, 17:00,  12.3,  60,  13.8,  11.2,  10.7,   0.0,  1.30, 
 03/05/10, 18:00,  10.5,  67,  13.8,  11.4,  10.7,   0.0,  0.38, 
 03/05/10, 19:00,   9.0,  75,  13.5,  11.6,  10.7,   0.0,  0.05, 
 03/05/10, 20:00,   8.0,  82,  13.1,  11.7,  10.7,   0.0,  0.00, 
 03/05/10, 21:00,   7.7,  88,  12.7,  11.8,  10.7,   0.0,  0.00, 
 03/05/10, 22:00,   7.2,  92,  12.4,  11.8,  10.7,   0.0,  0.00, 
 03/05/10, 23:00,   7.3,  93,  12.0,  11.8,  10.7,   0.0,  0.00, 
 03/05/11, 00:00,   7.1,  92,  11.8,  11.8,  10.7,   0.0,  0.00, 
 03/05/11, 01:00,   5.9,  97,  11.6,  11.8,  10.7,   0.0,  0.00, 
 03/05/11, 02:00,   5.1,  99,  11.4,  11.7,  10.7,   0.0,  0.00, 
 03/05/11, 03:00,   6.1,  94,  11.1,  11.6,  10.7,   0.0,  0.00, 
 03/05/11, 04:00,   6.4,  90,  10.9,  11.6,  10.7,   0.0,  0.00, 
 03/05/11, 05:00,   6.5,  89,  10.8,  11.5,  10.7,   0.0,  0.00, 
 03/05/11, 06:00,   6.9,  88,  10.6,  11.4,  10.8,   0.0,  0.03, 
 03/05/11, 07:00,   7.5,  83,  10.6,  11.3,  10.8,   0.0,  0.32, 
 03/05/11, 08:00,   7.6,  88,  10.6,  11.3,  10.8,   0.0,  0.55, 
 03/05/11, 09:00,   8.2,  86,  10.6,  11.2,  10.8,   0.0,  0.58, 
 03/05/11, 10:00,   9.6,  78,  10.8,  11.1,  10.8,   0.0,  0.91, 
 03/05/11, 11:00,   9.1,  84,  11.0,  11.1,  10.8,   0.0,  0.90, 
 03/05/11, 12:00,  10.2,  75,  11.2,  11.1,  10.8,   0.0,  0.80, 
 03/05/11, 13:00,   9.0,  88,  11.3,  11.1,  10.8,   0.0,  0.65, 
 03/05/11, 14:00,   9.4,  89,  11.4,  11.1,  10.8,   0.0,  1.24, 
 03/05/11, 15:00,   7.9,  99,  11.6,  11.1,  10.7,   0.0,  0.60, 
 03/05/11, 16:00,   7.9,  98,  11.6,  11.1,  10.7,   0.0,  0.24, 
 03/05/11, 17:00,   7.4,  99,  11.6,  11.1,  10.7,   0.0,  0.28, 
 03/05/11, 18:00,   6.4,  94,  11.5,  11.2,  10.7,   0.0,  0.09, 
 03/05/11, 19:00,   6.3,  87,  11.3,  11.2,  10.7,   1.0,  0.00, 
 03/05/11, 20:00,   5.8,  92,  11.1,  11.2,  10.7,   0.0,  0.00, 
 03/05/11, 21:00,   6.2,  87,  10.8,  11.2,  10.7,   0.0,  0.00, 
 03/05/11, 22:00,   6.3,  87,  10.6,  11.1,  10.7,   0.0,  0.00, 
 03/05/11, 23:00,   7.2,  81,  10.4,  11.1,  10.7,   0.0,  0.00, 
 03/05/12, 00:00,   5.9,  96,  10.3,  11.0,  10.7,   0.0,  0.00, 
 03/05/12, 01:00,   6.5,  87,  10.2,  11.0,  10.7,   0.0,  0.00, 
 03/05/12, 02:00,   7.1,  84,  10.1,  10.9,  10.7,   0.0,  0.00, 
 03/05/12, 03:00,   6.3,  89,  10.0,  10.8,  10.7,   0.5,  0.00, 
 03/05/12, 04:00,   5.5,  98,   9.8,  10.8,  10.7,   0.0,  0.00, 
 03/05/12, 05:00,   5.5,  99,   9.7,  10.7,  10.7,   0.0,  0.00, 
 03/05/12, 06:00,   6.1,  96,   9.6,  10.6,  10.7,   0.0,  0.10, 
 03/05/12, 07:00,   6.9,  94,   9.6,  10.6,  10.6,   0.0,  0.56, 
 03/05/12, 08:00,   9.7,  81,   9.7,  10.5,  10.6,   0.0,  0.94, 
 03/05/12, 09:00,  11.5,  78,  10.0,  10.4,  10.6,   0.0,  1.96, 
 03/05/12, 10:00,  13.4,  74,  10.6,  10.4,  10.6,   0.0,  2.79, 
 03/05/12, 11:00,  12.0,  75,  11.6,  10.4,  10.6,   0.5,  2.65, 
 03/05/12, 12:00,  14.7,  67,  12.4,  10.5,  10.6,   0.0,  1.63, 
 03/05/12, 13:00,  15.8,  63,  13.0,  10.6,  10.6,   0.0,  2.18, 
 03/05/12, 14:00,  15.5,  66,  13.4,  10.8,  10.6,   0.0,  2.14, 
 03/05/12, 15:00,  15.2,  66,  13.6,  11.0,  10.6,   0.0,  1.84, 
 03/05/12, 16:00,  15.3,  67,  13.8,  11.2,  10.5,   0.0,  1.39, 
 03/05/12, 17:00,  14.0,  72,  14.0,  11.4,  10.6,   0.0,  1.25, 
 03/05/12, 18:00,  11.4,  80,  14.0,  11.5,  10.5,   0.0,  0.49, 
 03/05/12, 19:00,  10.3,  87,  13.8,  11.7,  10.6,   0.0,  0.05, 
 03/05/12, 20:00,  10.2,  91,  13.4,  11.8,  10.5,   0.0,  0.00, 
 03/05/12, 21:00,  10.0,  92,  13.1,  11.9,  10.6,   0.0,  0.00, 
 03/05/12, 22:00,   9.8,  96,  12.8,  11.9,  10.6,   0.0,  0.00, 
 03/05/12, 23:00,   9.3,  98,  12.6,  11.9,  10.5,   0.0,  0.00, 
 03/05/13, 00:00,   9.5,  98,  12.4,  11.9,  10.6,   0.0,  0.00, 
 03/05/13, 01:00,   9.2,  99,  12.3,  11.9,  10.6,   0.0,  0.00, 
 03/05/13, 02:00,   9.0,  99,  12.1,  11.9,  10.6,   0.0,  0.00, 
 03/05/13, 03:00,   8.8,  99,  12.0,  11.8,  10.6,   0.0,  0.00, 
 03/05/13, 04:00,   8.7,  99,  11.9,  11.8,  10.6,   0.0,  0.00, 
 03/05/13, 05:00,   8.6,  99,  11.7,  11.8,  10.7,   0.0,  0.00, 
 03/05/13, 06:00,   8.9,  99,  11.6,  11.7,  10.7,   0.0,  0.15, 
 03/05/13, 07:00,   9.5,  95,  11.5,  11.7,  10.7,   0.0,  0.52, 
 03/05/13, 08:00,  10.5,  93,  11.6,  11.6,  10.7,   0.0,  0.82, 
 03/05/13, 09:00,  11.0,  89,  11.7,  11.6,  10.7,   0.0,  1.40, 
 03/05/13, 10:00,  12.5,  80,  12.1,  11.5,  10.7,   0.0,  2.02, 
 03/05/13, 11:00,  13.8,  76,  12.6,  11.5,  10.7,   0.0,  3.09, 
 03/05/13, 12:00,  15.5,  70,  13.5,  11.5,  10.7,   0.0,  3.25, 
 03/05/13, 13:00,  15.0,  71,  14.4,  11.6,  10.7,   0.0,  1.55, 
 03/05/13, 14:00,  14.6,  73,  14.7,  11.8,  10.7,   0.0,  1.62, 
 03/05/13, 15:00,  13.6,  76,  14.9,  12.0,  10.7,   0.0,  1.05, 
 03/05/13, 16:00,  13.4,  78,  14.9,  12.1,  10.8,   0.0,  0.67, 
 03/05/13, 17:00,  13.4,  77,  14.8,  12.3,  10.7,   0.0,  0.54, 
 03/05/13, 18:00,  12.6,  82,  14.7,  12.5,  10.8,   0.0,  0.24, 
 03/05/13, 19:00,  11.4,  89,  14.5,  12.6,  10.8,   0.0,  0.00, 
 03/05/13, 20:00,  10.6,  93,  14.3,  12.6,  10.8,   0.0,  0.00, 
 03/05/13, 21:00,  10.2,  97,  14.0,  12.7,  10.9,   0.0,  0.00, 
 03/05/13, 22:00,   9.9,  98,  13.7,  12.7,  10.8,   0.0,  0.00, 
 03/05/13, 23:00,   9.4,  99,  13.4,  12.7,  10.8,   0.0,  0.00, 
 03/05/14, 00:00,   8.6,  98,  13.1,  12.7,  10.9,   0.0,  0.00, 
 03/05/14, 01:00,   7.6,  99,  12.9,  12.6,  10.9,   0.0,  0.00, 
 03/05/14, 02:00,   8.2,  97,  12.4,  12.6,  10.9,   0.0,  0.00, 
 03/05/14, 03:00,   7.9,  99,  12.3,  12.5,  10.9,   0.0,  0.00, 
 03/05/14, 04:00,   6.4,  99,  12.0,  12.4,  10.9,   0.0,  0.00, 
 03/05/14, 05:00,   6.1,  99,  11.6,  12.3,  11.0,   0.0,  0.00, 
 03/05/14, 06:00,   7.6,  97,  11.4,  12.2,  11.0,   0.0,  0.12, 
 03/05/14, 07:00,   9.0,  91,  11.3,  12.1,  11.0,   0.0,  0.72, 
 03/05/14, 08:00,  11.3,  77,  11.4,  12.0,  11.0,   0.0,  1.24, 
 03/05/14, 09:00,  13.6,  65,  11.8,  11.9,  11.0,   0.0,  2.06, 
 03/05/14, 10:00,  13.6,  75,  12.4,  11.9,  11.0,   0.0,  2.74, 
 03/05/14, 11:00,  13.3,  78,  13.2,  11.9,  11.0,   0.0,  1.84, 
 03/05/14, 12:00,  13.1,  80,  13.7,  11.9,  11.0,   0.0,  0.68, 
 03/05/14, 13:00,  12.8,  79,  13.8,  12.0,  11.0,   0.0,  0.51, 
 03/05/14, 14:00,  12.8,  86,  13.8,  12.1,  11.0,   0.0,  0.69, 
 03/05/14, 15:00,  12.5,  91,  13.8,  12.2,  11.0,   0.0,  0.52, 
 03/05/14, 16:00,  12.1,  99,  13.8,  12.3,  11.0,   0.0,  0.41, 
 03/05/14, 17:00,  11.2,  99,  13.8,  12.4,  11.0,   0.0,  0.26, 
 03/05/14, 18:00,  10.4,  99,  13.7,  12.4,  11.0,   0.0,  0.05, 
 03/05/14, 19:00,   9.8,  99,  13.5,  12.5,  11.0,   0.5,  0.00, 
 03/05/14, 20:00,   9.5,  99,  13.3,  12.5,  11.0,   1.0,  0.00, 
 03/05/14, 21:00,   9.5,  99,  13.1,  12.5,  11.1,   1.5,  0.00, 
 03/05/14, 22:00,   9.4,  99,  12.9,  12.5,  11.1,   1.5,  0.00, 
 03/05/14, 23:00,   9.3,  99,  12.6,  12.5,  11.1,   2.0,  0.00, 
 03/05/15, 00:00,   9.3,  99,  12.4,  12.4,  11.1,   0.0,  0.00, 
 03/05/15, 01:00,   9.3,  99,  12.3,  12.4,  11.1,   0.0,  0.00, 
 03/05/15, 02:00,   9.4,  99,  12.1,  12.3,  11.1,   0.5,  0.00, 
 03/05/15, 03:00,   9.4,  99,  12.0,  12.3,  11.1,   1.0,  0.00, 
 03/05/15, 04:00,   9.4,  99,  11.9,  12.2,  11.1,   0.5,  0.00, 
 03/05/15, 05:00,   9.3,  99,  11.8,  12.2,  11.1,   0.0,  0.00, 
 03/05/15, 06:00,   9.6,  99,  11.7,  12.1,  11.1,   0.0,  0.01, 
 03/05/15, 07:00,   9.9,  99,  11.6,  12.0,  11.2,   0.0,  0.16, 
 03/05/15, 08:00,  10.4,  99,  11.7,  12.0,  11.2,   0.0,  0.24, 
 03/05/15, 09:00,  11.0,  99,  11.7,  11.9,  11.2,   0.0,  0.59, 
 03/05/15, 10:00,  12.4,  99,  12.0,  11.9,  11.2,   0.0,  0.82, 
 03/05/15, 11:00,  12.8,  99,  12.2,  11.9,  11.2,   0.0,  0.82, 
 03/05/15, 12:00,  13.2,  99,  12.5,  11.9,  11.2,   0.5,  1.04, 
 03/05/15, 13:00,  13.8,  99,  12.9,  11.9,  11.2,   0.0,  0.89, 
 03/05/15, 14:00,  13.7,  99,  13.2,  11.9,  11.2,   0.0,  0.80, 
 03/05/15, 15:00,  13.1,  99,  13.4,  12.0,  11.2,   0.5,  0.34, 
 03/05/15, 16:00,  13.2,  99,  13.5,  12.1,  11.2,   6.5,  0.22, 
 03/05/15, 17:00,  13.2,  99,  13.5,  12.2,  11.2,   1.5,  0.17, 
 03/05/15, 18:00,  13.2,  99,  13.5,  12.3,  11.2,   1.0,  0.08, 
 03/05/15, 19:00,  12.9,  99,  13.5,  12.3,  11.2,   2.0,  0.00, 
 03/05/15, 20:00,  12.4,  99,  13.4,  12.4,  11.2,   3.0,  0.00, 
 03/05/15, 21:00,  12.2,  99,  13.3,  12.5,  11.2,   1.5,  0.00, 
 03/05/15, 22:00,  11.8,  99,  13.2,  12.5,  11.2,   1.0,  0.00, 
 03/05/15, 23:00,  11.4,  99,  13.1,  12.5,  11.2,   1.5,  0.00, 
 03/05/16, 00:00,  11.0,  99,  13.0,  12.5,  11.2,   0.5,  0.00, 
 03/05/16, 01:00,  10.6,  99,  12.9,  12.5,  11.2,   1.5,  0.00, 